Total_Precipitation_Accumulation
0.00 0.00 0.00 0.00 0.00 0.01 0.06 0.28 0.58 0.06 0.26 0.16 0.06 0.01 0.03 0.00 0.00 0.00 0.00 0.00 0.00 0.00 0.00 0.00 0.00 0.01 0.19 0.06 0.01 0.05 0.06 0.19 0.03 0.31 0.13 0.22 0.18 0.29 0.20 0.09 0.17 0.15 0.24 0.24 0.37 0.57 0.43 0.63 0.51 0.53 0.58 0.90 0.57 0.77 0.48 0.39 0.59 0.53 0.49 0.39 0.35 0.36 0.20 0.09 0.05 0.04 0.02 0.01 0.02 0.02 0.02 0.00 0.00 0.01 0.02 0.01 0.01 0.00 0.01 0.00 0.00 0.01 0.01 0.00 0.00 0.00 0.00 0.00 0.00 0.00 0.00 0.00 0.01 0.01 0.00 0.01 0.01
0.00 0.00 0.00 0.00 0.06 0.17 0.32 0.24 0.20 0.09 0.05 0.04 0.01 0.01 0.00 0.00 0.02 0.04 0.00 0.00 0.00 0.00 0.00 0.00 0.00 0.00 0.00 0.00 0.02 0.03 0.00 0.03 0.04 0.02 0.12 0.11 0.24 0.22 0.14 0.07 0.09 0.09 0.14 0.12 0.27 0.29 0.47 0.60 0.50 0.93 0.43 0.51 0.52 0.41 0.38 0.68 0.50 0.47 0.24 0.31 0.22 0.26 0.15 0.07 0.03 0.03 0.02 0.01 0.01 0.01 0.00 0.02 0.01 0.01 0.02 0.00 0.01 0.00 0.00 0.01 0.00 0.00 0.00 0.00 0.01 0.00 0.01 0.01 0.01 0.00 0.00 0.00 0.00 0.00 0.00 0.01 0.00
0.00 0.00 0.01 0.01 0.04 0.09 0.16 0.05 0.15 0.01 0.15 0.09 0.01 0.00 0.00 0.03 0.05 0.07 0.00 0.00 0.00 0.00 0.00 0.00 0.00 0.00 0.00 0.01 0.07 0.02 0.08 0.06 0.03 0.04 0.13 0.12 0.13 0.18 0.16 0.10 0.06 0.11 0.16 0.19 0.27 0.57 0.53 0.62 0.32 0.39 0.34 0.62 0.27 0.40 0.24 0.29 0.24 0.27 0.27 0.30 0.22 0.24 0.22 0.05 0.02 0.03 0.02 0.01 0.02 0.02 0.01 0.01 0.02 0.01 0.01 0.01 0.01 0.01 0.01 0.01 0.01 0.00 0.00 0.00 0.00 0.00 0.02 0.00 0.01 0.00 0.00 0.01 0.00 0.00 0.00 0.01 0.01
0.00 0.00 0.05 0.02 0.19 0.05 0.16 0.07 0.02 0.02 0.00 0.12 0.01 0.02 0.13 0.00 0.00 0.00 0.00 0.00 0.00 0.00 0.00 0.00 0.05 0.00 0.00 0.01 0.01 0.00 0.01 0.04 0.06 0.03 0.17 0.14 0.11 0.12 0.11 0.13 0.12 0.07 0.15 0.15 0.21 0.31 0.35 0.27 0.17 0.46 0.35 0.33 0.28 0.32 0.16 0.22 0.24 0.39 0.27 0.17 0.20 0.19 0.23 0.08 0.03 0.06 0.04 0.02 0.03 0.02 0.01 0.01 0.02 0.01 0.01 0.02 0.01 0.01 0.01 0.01 0.01 0.00 0.00 0.00 0.00 0.01 0.01 0.02 0.02 0.03 0.01 0.00 0.00 0.00 0.00 0.03 0.03
0.00 0.00 0.02 0.15 0.07 0.18 0.05 0.00 0.00 0.00 0.00 0.01 0.08 0.01 0.02 0.01 0.00 0.00 0.00 0.00 0.00 0.00 0.00 0.00 0.00 0.00 0.00 0.00 0.00 0.02 0.03 0.04 0.07 0.04 0.06 0.10 0.04 0.10 0.10 0.12 0.12 0.10 0.13 0.19 0.17 0.19 0.22 0.13 0.16 0.19 0.19 0.15 0.24 0.18 0.10 0.09 0.21 0.17 0.14 0.18 0.26 0.20 0.16 0.07 0.03 0.03 0.02 0.03 0.03 0.01 0.01 0.01 0.02 0.01 0.00 0.01 0.01 0.00 0.01 0.01 0.02 0.01 0.00 0.00 0.01 0.01 0.02 0.01 0.04 0.01 0.00 0.01 0.01 0.01 0.01 0.02 0.01
0.00 0.00 0.01 0.02 0.30 0.01 0.04 0.04 0.00 0.00 0.00 0.00 0.00 0.00 0.00 0.00 0.00 0.00 0.00 0.00 0.00 0.00 0.00 0.00 0.00 0.00 0.01 0.00 0.00 0.00 0.00 0.07 0.05 0.01 0.09 0.11 0.05 0.06 0.09 0.09 0.10 0.16 0.24 0.18 0.10 0.12 0.28 0.19 0.15 0.11 0.14 0.23 0.16 0.07 0.09 0.09 0.13 0.15 0.19 0.10 0.14 0.06 0.04 0.04 0.05 0.01 0.01 0.03 0.02 0.01 0.01 0.01 0.01 0.01 0.00 0.00 0.01 0.00 0.02 0.01 0.01 0.00 0.00 0.02 0.00 0.01 0.02 0.01 0.01 0.02 0.02 0.03 0.01 0.01 0.01 0.01 0.02
0.02 0.00 0.07 0.04 0.03 0.06 0.04 0.00 0.00 0.00 0.00 0.00 0.00 0.00 0.00 0.00 0.00 0.00 0.00 0.00 0.00 0.00 0.00 0.00 0.00 0.00 0.00 0.00 0.00 0.01 0.01 0.00 0.01 0.04 0.06 0.02 0.02 0.04 0.08 0.11 0.08 0.16 0.10 0.09 0.05 0.14 0.16 0.13 0.10 0.12 0.13 0.08 0.09 0.08 0.08 0.07 0.05 0.12 0.07 0.06 0.11 0.11 0.05 0.03 0.02 0.02 0.02 0.02 0.02 0.00 0.01 0.01 0.01 0.02 0.03 0.02 0.00 0.00 0.01 0.00 0.00 0.00 0.00 0.00 0.01 0.02 0.02 0.01 0.00 0.02 0.01 0.01 0.02 0.01 0.01 0.01 0.02
0.02 0.05 0.02 0.15 0.02 0.04 0.01 0.01 0.00 0.00 0.00 0.00 0.00 0.00 0.00 0.00 0.00 0.00 0.00 0.00 0.00 0.00 0.00 0.00 0.00 0.01 0.00 0.00 0.03 0.02 0.00 0.00 0.01 0.02 0.01 0.01 0.02 0.05 0.07 0.10 0.13 0.14 0.12 0.09 0.10 0.13 0.15 0.09 0.13 0.09 0.07 0.12 0.09 0.05 0.05 0.05 0.08 0.09 0.05 0.05 0.03 0.03 0.04 0.03 0.01 0.01 0.03 0.03 0.00 0.02 0.01 0.00 0.02 0.00 0.01 0.00 0.01 0.01 0.00 0.00 0.00 0.00 0.00 0.00 0.02 0.03 0.02 0.04 0.01 0.01 0.00 0.01 0.00 0.02 0.02 0.01 0.00
0.02 0.03 0.01 0.05 0.08 0.00 0.03 0.00 0.00 0.00 0.00 0.00 0.00 0.00 0.00 0.00 0.00 0.00 0.00 0.00 0.00 0.00 0.00 0.00 0.00 0.03 0.01 0.00 0.02 0.03 0.01 0.00 0.00 0.00 0.01 0.01 0.05 0.06 0.07 0.09 0.10 0.15 0.10 0.07 0.16 0.14 0.15 0.09 0.09 0.12 0.12 0.07 0.07 0.10 0.06 0.09 0.05 0.05 0.05 0.03 0.03 0.04 0.02 0.02 0.02 0.01 0.01 0.01 0.01 0.02 0.01 0.01 0.01 0.01 0.01 0.00 0.01 0.01 0.00 0.00 0.01 0.00 0.00 0.01 0.01 0.02 0.02 0.00 0.00 0.00 0.00 0.00 0.01 0.01 0.03 0.01 0.01
0.03 0.02 0.03 0.04 0.01 0.03 0.01 0.00 0.04 0.00 0.00 0.00 0.00 0.00 0.00 0.00 0.00 0.00 0.00 0.00 0.00 0.00 0.00 0.00 0.00 0.00 0.00 0.00 0.01 0.01 0.02 0.00 0.01 0.02 0.01 0.03 0.03 0.03 0.04 0.05 0.03 0.04 0.05 0.13 0.05 0.08 0.12 0.14 0.07 0.09 0.07 0.07 0.05 0.05 0.06 0.08 0.04 0.05 0.03 0.02 0.04 0.02 0.02 0.01 0.01 0.02 0.02 0.01 0.02 0.01 0.02 0.01 0.00 0.00 0.00 0.00 0.03 0.01 0.00 0.00 0.01 0.00 0.00 0.01 0.00 0.00 0.00 0.00 0.00 0.00 0.00 0.01 0.00 0.01 0.02 0.05 0.03
0.11 0.01 0.00 0.02 0.03 0.00 0.01 0.00 0.00 0.00 0.00 0.00 0.00 0.00 0.00 0.00 0.00 0.00 0.00 0.00 0.00 0.00 0.00 0.00 0.01 0.00 0.00 0.03 0.04 0.02 0.01 0.00 0.00 0.03 0.02 0.01 0.03 0.03 0.05 0.01 0.03 0.04 0.08 0.11 0.05 0.06 0.16 0.22 0.10 0.07 0.07 0.07 0.06 0.05 0.07 0.08 0.05 0.05 0.04 0.03 0.02 0.01 0.01 0.01 0.01 0.01 0.02 0.02 0.02 0.01 0.02 0.02 0.03 0.01 0.00 0.00 0.01 0.00 0.00 0.01 0.01 0.00 0.00 0.00 0.00 0.00 0.00 0.00 0.03 0.01 0.00 0.00 0.01 0.00 0.01 0.03 0.01
0.18 0.02 0.01 0.02 0.04 0.06 0.05 0.01 0.00 0.00 0.00 0.00 0.00 0.00 0.00 0.00 0.00 0.00 0.00 0.00 0.00 0.00 0.00 0.00 0.00 0.00 0.00 0.00 0.05 0.06 0.01 0.00 0.00 0.01 0.02 0.02 0.02 0.02 0.01 0.02 0.04 0.03 0.07 0.15 0.13 0.22 0.11 0.22 0.19 0.16 0.04 0.05 0.06 0.04 0.03 0.06 0.03 0.02 0.03 0.01 0.02 0.02 0.01 0.01 0.02 0.02 0.00 0.01 0.04 0.02 0.02 0.01 0.00 0.01 0.00 0.01 0.02 0.01 0.02 0.01 0.01 0.00 0.00 0.00 0.00 0.00 0.01 0.01 0.01 0.02 0.01 0.01 0.01 0.02 0.03 0.07 0.10
0.12 0.03 0.03 0.00 0.01 0.02 0.02 0.04 0.01 0.00 0.00 0.00 0.00 0.00 0.00 0.00 0.00 0.00 0.00 0.00 0.00 0.00 0.00 0.00 0.00 0.00 0.00 0.01 0.05 0.03 0.03 0.01 0.00 0.01 0.02 0.01 0.02 0.02 0.01 0.02 0.02 0.04 0.05 0.08 0.15 0.10 0.12 0.09 0.22 0.15 0.09 0.07 0.06 0.05 0.05 0.03 0.02 0.02 0.03 0.03 0.02 0.01 0.00 0.01 0.01 0.00 0.00 0.00 0.00 0.02 0.02 0.00 0.00 0.00 0.00 0.01 0.01 0.01 0.01 0.01 0.01 0.02 0.00 0.01 0.02 0.00 0.03 0.01 0.05 0.10 0.12 0.09 0.07 0.02 0.03 0.11 0.13
0.04 0.06 0.00 0.01 0.01 0.01 0.02 0.04 0.03 0.04 0.00 0.00 0.00 0.00 0.00 0.00 0.00 0.00 0.00 0.01 0.03 0.02 0.00 0.00 0.00 0.00 0.01 0.00 0.13 0.02 0.01 0.02 0.00 0.01 0.02 0.02 0.03 0.02 0.02 0.02 0.03 0.05 0.04 0.05 0.11 0.09 0.13 0.14 0.12 0.16 0.12 0.16 0.30 0.15 0.05 0.03 0.04 0.02 0.01 0.03 0.04 0.01 0.01 0.00 0.00 0.00 0.01 0.00 0.01 0.02 0.01 0.00 0.01 0.03 0.02 0.01 0.01 0.01 0.00 0.00 0.00 0.01 0.00 0.01 0.01 0.01 0.03 0.05 0.04 0.09 0.09 0.04 0.06 0.04 0.07 0.20 0.29
0.02 0.00 0.00 0.00 0.01 0.01 0.03 0.07 0.04 0.01 0.03 0.01 0.00 0.00 0.00 0.00 0.00 0.00 0.00 0.01 0.00 0.00 0.00 0.00 0.00 0.00 0.01 0.00 0.02 0.02 0.03 0.01 0.01 0.01 0.01 0.02 0.02 0.02 0.02 0.02 0.05 0.04 0.09 0.07 0.13 0.15 0.13 0.12 0.11 0.11 0.16 0.11 0.11 0.15 0.19 0.10 0.01 0.03 0.02 0.07 0.01 0.02 0.02 0.01 0.01 0.01 0.01 0.01 0.01 0.02 0.03 0.03 0.01 0.04 0.02 0.01 0.00 0.01 0.01 0.00 0.00 0.01 0.02 0.02 0.02 0.02 0.02 0.15 0.18 0.16 0.05 0.02 0.01 0.03 0.10 0.11 0.24
0.00 0.00 0.02 0.06 0.01 0.01 0.00 0.01 0.00 0.00 0.00 0.00 0.00 0.00 0.00 0.00 0.00 0.00 0.00 0.00 0.00 0.00 0.00 0.00 0.00 0.01 0.00 0.00 0.00 0.00 0.02 0.01 0.01 0.00 0.01 0.02 0.04 0.04 0.03 0.04 0.04 0.09 0.06 0.08 0.13 0.11 0.07 0.09 0.15 0.11 0.15 0.17 0.11 0.10 0.07 0.12 0.02 0.01 0.01 0.01 0.00 0.00 0.00 0.01 0.00 0.03 0.01 0.01 0.02 0.01 0.06 0.13 0.03 0.02 0.00 0.02 0.00 0.00 0.01 0.02 0.04 0.00 0.01 0.03 0.04 0.02 0.04 0.08 0.03 0.06 0.08 0.03 0.02 0.03 0.04 0.14 0.22
0.00 0.00 0.02 0.01 0.01 0.04 0.01 0.01 0.10 0.07 0.00 0.00 0.00 0.00 0.00 0.00 0.00 0.00 0.00 0.00 0.00 0.01 0.00 0.00 0.00 0.00 0.00 0.00 0.00 0.00 0.01 0.01 0.01 0.01 0.02 0.03 0.06 0.11 0.10 0.05 0.09 0.09 0.10 0.09 0.13 0.12 0.08 0.10 0.09 0.12 0.13 0.19 0.16 0.10 0.04 0.10 0.07 0.02 0.03 0.00 0.02 0.00 0.01 0.02 0.01 0.01 0.02 0.02 0.02 0.01 0.04 0.07 0.06 0.06 0.11 0.08 0.03 0.06 0.01 0.00 0.03 0.02 0.03 0.06 0.07 0.10 0.11 0.08 0.07 0.04 0.06 0.05 0.03 0.06 0.06 0.13 0.08
0.00 0.04 0.01 0.06 0.00 0.00 0.00 0.00 0.00 0.00 0.00 0.00 0.00 0.00 0.00 0.00 0.00 0.00 0.00 0.00 0.00 0.00 0.00 0.00 0.00 0.00 0.00 0.00 0.00 0.00 0.00 0.01 0.02 0.01 0.02 0.02 0.05 0.04 0.07 0.05 0.07 0.10 0.10 0.09 0.11 0.10 0.08 0.12 0.09 0.08 0.19 0.09 0.14 0.08 0.09 0.08 0.09 0.06 0.08 0.13 0.05 0.06 0.02 0.00 0.06 0.04 0.01 0.04 0.04 0.07 0.04 0.07 0.06 0.21 0.24 0.11 0.26 0.09 0.06 0.01 0.04 0.05 0.08 0.16 0.14 0.10 0.20 0.24 0.18 0.12 0.03 0.06 0.08 0.05 0.10 0.05 0.07
0.01 0.02 0.02 0.16 0.01 0.00 0.00 0.00 0.00 0.01 0.00 0.00 0.00 0.00 0.00 0.00 0.00 0.00 0.01 0.00 0.00 0.00 0.00 0.00 0.00 0.00 0.00 0.00 0.00 0.00 0.00 0.01 0.02 0.01 0.00 0.01 0.02 0.01 0.02 0.01 0.04 0.04 0.06 0.07 0.12 0.08 0.07 0.08 0.06 0.08 0.07 0.12 0.09 0.06 0.05 0.06 0.06 0.07 0.12 0.05 0.05 0.01 0.06 0.09 0.04 0.05 0.04 0.05 0.13 0.25 0.30 0.09 0.09 0.17 0.14 0.12 0.15 0.02 0.07 0.00 0.03 0.07 0.10 0.26 0.13 0.25 0.33 0.35 0.28 0.11 0.04 0.08 0.13 0.09 0.13 0.18 0.23
0.00 0.01 0.15 0.03 0.00 0.00 0.00 0.00 0.00 0.00 0.00 0.00 0.00 0.00 0.00 0.00 0.00 0.00 0.03 0.01 0.00 0.00 0.00 0.00 0.00 0.01 0.01 0.02 0.01 0.01 0.00 0.01 0.00 0.00 0.01 0.00 0.01 0.01 0.01 0.01 0.02 0.01 0.03 0.03 0.09 0.05 0.08 0.07 0.04 0.05 0.08 0.10 0.09 0.07 0.06 0.05 0.04 0.07 0.11 0.04 0.05 0.04 0.03 0.04 0.04 0.03 0.07 0.16 0.26 0.26 0.20 0.20 0.24 0.29 0.09 0.01 0.04 0.03 0.07 0.01 0.01 0.05 0.09 0.07 0.09 0.10 0.10 0.12 0.21 0.10 0.10 0.07 0.18 0.22 0.24 0.25 0.30
0.00 0.00 0.06 0.08 0.00 0.00 0.00 0.00 0.00 0.00 0.00 0.00 0.00 0.00 0.00 0.00 0.00 0.01 0.00 0.04 0.00 0.00 0.00 0.00 0.00 0.00 0.01 0.01 0.01 0.00 0.01 0.01 0.02 0.00 0.00 0.00 0.00 0.00 0.00 0.00 0.01 0.00 0.04 0.02 0.06 0.05 0.05 0.06 0.03 0.05 0.05 0.05 0.04 0.05 0.03 0.08 0.05 0.06 0.07 0.11 0.05 0.05 0.10 0.05 0.08 0.10 0.09 0.16 0.18 0.20 0.14 0.25 0.24 0.20 0.10 0.16 0.09 0.10 0.10 0.12 0.09 0.27 0.14 0.15 0.04 0.19 0.10 0.25 0.18 0.22 0.20 0.26 0.14 0.20 0.27 0.35 0.33
0.00 0.00 0.04 0.00 0.00 0.00 0.00 0.00 0.00 0.00 0.00 0.00 0.00 0.01 0.01 0.00 0.00 0.00 0.08 0.06 0.08 0.00 0.00 0.00 0.00 0.00 0.00 0.00 0.00 0.00 0.00 0.00 0.00 0.00 0.00 0.00 0.00 0.00 0.00 0.00 0.00 0.01 0.04 0.04 0.04 0.02 0.03 0.04 0.02 0.04 0.03 0.03 0.03 0.05 0.09 0.05 0.07 0.04 0.14 0.08 0.17 0.08 0.09 0.04 0.14 0.07 0.06 0.05 0.07 0.06 0.04 0.11 0.11 0.08 0.08 0.12 0.09 0.04 0.03 0.02 0.03 0.08 0.06 0.20 0.11 0.14 0.11 0.22 0.28 0.25 0.35 0.39 0.26 0.32 0.20 0.08 0.07
0.00 0.00 0.00 0.00 0.00 0.00 0.00 0.00 0.00 0.00 0.00 0.00 0.00 0.00 0.00 0.00 0.00 0.00 0.03 0.24 0.00 0.00 0.00 0.00 0.00 0.00 0.00 0.00 0.00 0.00 0.00 0.00 0.00 0.00 0.00 0.00 0.00 0.00 0.00 0.00 0.00 0.02 0.03 0.02 0.04 0.02 0.02 0.04 0.03 0.02 0.03 0.03 0.02 0.03 0.05 0.08 0.08 0.07 0.08 0.08 0.10 0.08 0.09 0.06 0.08 0.11 0.23 0.12 0.06 0.06 0.06 0.05 0.08 0.10 0.05 0.07 0.04 0.04 0.07 0.08 0.09 0.09 0.15 0.24 0.17 0.14 0.14 0.17 0.09 0.20 0.13 0.14 0.19 0.20 0.38 0.25 0.10
0.00 0.00 0.00 0.00 0.00 0.00 0.00 0.00 0.00 0.00 0.00 0.00 0.00 0.00 0.00 0.00 0.00 0.01 0.00 0.00 0.00 0.00 0.00 0.00 0.00 0.00 0.00 0.00 0.00 0.00 0.00 0.00 0.00 0.00 0.00 0.00 0.00 0.00 0.00 0.01 0.00 0.00 0.00 0.03 0.01 0.02 0.02 0.04 0.02 0.03 0.03 0.03 0.03 0.02 0.05 0.05 0.05 0.09 0.11 0.05 0.05 0.03 0.12 0.14 0.08 0.05 0.05 0.13 0.03 0.03 0.04 0.03 0.01 0.01 0.03 0.02 0.04 0.06 0.03 0.09 0.05 0.13 0.16 0.22 0.20 0.15 0.13 0.19 0.26 0.16 0.09 0.11 0.15 0.23 0.33 0.46 0.74
0.00 0.00 0.00 0.00 0.00 0.00 0.00 0.00 0.00 0.00 0.00 0.00 0.00 0.00 0.00 0.00 0.00 0.00 0.00 0.00 0.00 0.00 0.00 0.00 0.00 0.00 0.00 0.00 0.00 0.00 0.00 0.00 0.00 0.00 0.00 0.00 0.00 0.00 0.00 0.00 0.00 0.00 0.00 0.00 0.01 0.02 0.02 0.01 0.03 0.03 0.02 0.03 0.02 0.02 0.02 0.02 0.03 0.08 0.06 0.05 0.06 0.02 0.04 0.09 0.06 0.04 0.03 0.03 0.07 0.04 0.01 0.03 0.03 0.02 0.03 0.03 0.03 0.05 0.06 0.07 0.14 0.26 0.22 0.17 0.18 0.18 0.22 0.20 0.18 0.15 0.13 0.21 0.19 0.22 0.23 0.32 0.19
0.00 0.00 0.00 0.00 0.00 0.00 0.00 0.00 0.00 0.00 0.00 0.00 0.00 0.00 0.00 0.00 0.00 0.00 0.00 0.00 0.00 0.00 0.00 0.00 0.00 0.00 0.00 0.00 0.00 0.00 0.00 0.00 0.00 0.00 0.00 0.00 0.00 0.00 0.00 0.00 0.00 0.00 0.00 0.00 0.00 0.00 0.05 0.02 0.01 0.01 0.03 0.03 0.03 0.03 0.02 0.03 0.02 0.03 0.05 0.05 0.03 0.04 0.03 0.05 0.04 0.04 0.02 0.04 0.09 0.15 0.08 0.04 0.03 0.04 0.04 0.05 0.07 0.06 0.05 0.09 0.13 0.11 0.19 0.21 0.18 0.19 0.18 0.20 0.15 0.16 0.20 0.17 0.16 0.24 0.26 0.15 0.14
0.00 0.00 0.00 0.00 0.00 0.00 0.00 0.00 0.00 0.00 0.00 0.00 0.00 0.00 0.00 0.00 0.00 0.00 0.00 0.00 0.00 0.00 0.00 0.00 0.00 0.00 0.00 0.00 0.00 0.00 0.00 0.00 0.00 0.00 0.00 0.00 0.00 0.00 0.00 0.00 0.00 0.00 0.00 0.00 0.00 0.01 0.03 0.02 0.02 0.02 0.03 0.01 0.02 0.03 0.02 0.02 0.03 0.02 0.02 0.04 0.05 0.04 0.03 0.05 0.02 0.03 0.03 0.01 0.01 0.03 0.02 0.02 0.04 0.03 0.02 0.04 0.03 0.04 0.10 0.09 0.07 0.08 0.04 0.07 0.17 0.18 0.15 0.20 0.20 0.19 0.32 0.45 0.44 0.44 0.16 0.14 0.11
0.00 0.00 0.00 0.00 0.00 0.00 0.00 0.00 0.00 0.00 0.00 0.00 0.00 0.00 0.00 0.00 0.00 0.00 0.00 0.00 0.00 0.00 0.00 0.00 0.00 0.00 0.00 0.00 0.00 0.00 0.00 0.00 0.00 0.00 0.00 0.00 0.00 0.00 0.00 0.00 0.00 0.01 0.01 0.00 0.01 0.00 0.01 0.01 0.01 0.01 0.02 0.03 0.02 0.02 0.02 0.02 0.02 0.02 0.01 0.03 0.02 0.03 0.01 0.02 0.03 0.03 0.01 0.01 0.01 0.01 0.01 0.02 0.01 0.02 0.02 0.02 0.02 0.05 0.11 0.05 0.04 0.07 0.08 0.09 0.30 0.19 0.28 0.46 0.54 0.33 0.50 0.69 0.55 0.25 0.13 0.11 0.06
0.00 0.00 0.00 0.00 0.00 0.00 0.00 0.00 0.00 0.00 0.00 0.00 0.00 0.00 0.00 0.00 0.00 0.00 0.00 0.00 0.00 0.00 0.00 0.00 0.00 0.00 0.00 0.00 0.00 0.00 0.00 0.00 0.00 0.00 0.00 0.00 0.00 0.00 0.00 0.00 0.00 0.00 0.01 0.00 0.00 0.00 0.01 0.01 0.01 0.00 0.01 0.02 0.02 0.01 0.02 0.01 0.03 0.03 0.02 0.02 0.02 0.01 0.01 0.02 0.01 0.01 0.00 0.00 0.00 0.01 0.01 0.01 0.02 0.02 0.02 0.02 0.03 0.02 0.02 0.07 0.12 0.16 0.15 0.15 0.16 0.55 0.43 0.42 0.29 0.37 0.60 0.47 0.35 0.33 0.19 0.18 0.17
0.00 0.00 0.00 0.00 0.00 0.00 0.00 0.00 0.00 0.00 0.00 0.00 0.01 0.09 0.00 0.00 0.00 0.00 0.00 0.00 0.00 0.00 0.00 0.00 0.00 0.00 0.00 0.00 0.00 0.00 0.00 0.00 0.00 0.00 0.00 0.00 0.01 0.00 0.01 0.01 0.01 0.01 0.01 0.03 0.01 0.01 0.01 0.02 0.03 0.03 0.01 0.01 0.01 0.02 0.01 0.02 0.02 0.03 0.02 0.02 0.02 0.02 0.02 0.01 0.01 0.01 0.01 0.01 0.01 0.01 0.01 0.02 0.02 0.02 0.04 0.06 0.11 0.05 0.07 0.29 0.27 0.17 0.17 0.35 0.32 0.37 0.36 0.36 0.37 0.28 0.28 0.14 0.15 0.13 0.19 0.17 0.13
0.00 0.00 0.00 0.00 0.00 0.00 0.00 0.00 0.00 0.00 0.00 0.00 0.00 0.01 0.00 0.00 0.00 0.00 0.00 0.00 0.00 0.00 0.00 0.00 0.00 0.00 0.00 0.00 0.00 0.00 0.00 0.00 0.00 0.00 0.00 0.00 0.00 0.00 0.00 0.00 0.00 0.01 0.01 0.01 0.03 0.06 0.02 0.02 0.02 0.03 0.01 0.02 0.03 0.02 0.03 0.03 0.02 0.03 0.02 0.02 0.01 0.02 0.03 0.04 0.01 0.02 0.02 0.04 0.04 0.05 0.10 0.05 0.06 0.09 0.10 0.10 0.04 0.07 0.12 0.21 0.14 0.19 0.40 0.38 0.40 0.61 0.38 0.28 0.19 0.19 0.14 0.13 0.12 0.14 0.19 0.10 0.13
0.00 0.00 0.00 0.00 0.00 0.00 0.00 0.00 0.00 0.00 0.00 0.00 0.00 0.04 0.01 0.00 0.00 0.00 0.00 0.00 0.00 0.00 0.00 0.00 0.00 0.00 0.00 0.00 0.00 0.00 0.00 0.00 0.00 0.00 0.00 0.00 0.00 0.00 0.00 0.01 0.01 0.00 0.01 0.02 0.03 0.02 0.04 0.03 0.03 0.03 0.03 0.03 0.03 0.03 0.03 0.03 0.02 0.03 0.02 0.03 0.03 0.03 0.05 0.07 0.09 0.12 0.22 0.47 0.62 0.29 0.21 0.17 0.13 0.18 0.16 0.15 0.20 0.22 0.25 0.15 0.28 0.40 0.29 0.28 0.33 0.36 0.34 0.27 0.17 0.19 0.16 0.16 0.09 0.12 0.14 0.16 0.17
0.00 0.00 0.00 0.01 0.00 0.00 0.00 0.00 0.00 0.00 0.00 0.00 0.01 0.07 0.00 0.00 0.00 0.00 0.00 0.00 0.00 0.00 0.00 0.00 0.00 0.00 0.00 0.00 0.00 0.00 0.00 0.00 0.00 0.00 0.00 0.00 0.00 0.00 0.01 0.02 0.01 0.01 0.01 0.02 0.02 0.02 0.03 0.02 0.02 0.01 0.01 0.01 0.02 0.02 0.02 0.02 0.02 0.11 0.04 0.03 0.04 0.04 0.05 0.07 0.20 0.28 0.18 0.48 0.79 0.42 0.17 0.23 0.73 0.35 0.37 0.28 0.35 0.23 0.27 0.23 0.53 0.37 0.34 0.21 0.37 0.36 0.21 0.08 0.43 0.10 0.06 0.12 0.12 0.16 0.15 0.18 0.16
0.00 0.00 0.00 0.00 0.00 0.00 0.00 0.00 0.00 0.00 0.00 0.00 0.00 0.00 0.00 0.00 0.00 0.00 0.00 0.00 0.00 0.00 0.00 0.00 0.00 0.00 0.00 0.00 0.00 0.00 0.01 0.01 0.02 0.00 0.02 0.00 0.01 0.01 0.00 0.00 0.01 0.00 0.00 0.02 0.02 0.01 0.04 0.02 0.02 0.02 0.00 0.00 0.00 0.01 0.02 0.03 0.03 0.06 0.05 0.06 0.05 0.04 0.07 0.04 0.03 0.10 0.13 0.26 0.54 0.19 0.14 0.27 0.86 0.37 0.24 0.23 0.20 0.29 0.39 0.52 0.47 0.47 0.51 0.32 0.29 0.17 0.11 0.17 0.15 0.15 0.14 0.15 0.13 0.20 0.15 0.23 0.22
0.00 0.00 0.00 0.01 0.00 0.00 0.00 0.00 0.00 0.00 0.00 0.00 0.00 0.00 0.00 0.00 0.00 0.00 0.00 0.00 0.00 0.00 0.00 0.00 0.00 0.00 0.00 0.00 0.00 0.04 0.01 0.03 0.04 0.00 0.02 0.01 0.03 0.01 0.01 0.01 0.02 0.00 0.01 0.01 0.01 0.01 0.01 0.03 0.02 0.01 0.00 0.01 0.03 0.02 0.04 0.04 0.04 0.05 0.03 0.03 0.04 0.10 0.08 0.06 0.08 0.05 0.16 0.23 0.24 0.26 0.73 0.59 0.86 0.25 0.20 0.34 0.30 0.35 0.51 0.62 0.49 0.41 0.48 0.23 0.23 0.26 0.19 0.18 0.19 0.28 0.11 0.04 0.15 0.16 0.26 0.27 0.28
0.00 0.00 0.00 0.00 0.00 0.00 0.04 0.00 0.00 0.00 0.00 0.00 0.00 0.00 0.00 0.00 0.00 0.00 0.00 0.00 0.00 0.00 0.00 0.00 0.00 0.00 0.00 0.00 0.00 0.00 0.01 0.00 0.00 0.00 0.02 0.03 0.01 0.01 0.01 0.01 0.01 0.02 0.04 0.02 0.04 0.02 0.06 0.02 0.02 0.01 0.01 0.01 0.02 0.02 0.03 0.06 0.03 0.02 0.02 0.07 0.09 0.13 0.07 0.06 0.05 0.05 0.08 0.09 0.08 0.07 0.16 0.27 0.63 0.95 1.16 0.96 0.25 0.70 0.63 0.46 0.40 0.47 0.18 0.13 0.14 0.21 0.46 0.57 0.39 0.50 0.23 0.66 0.26 0.12 0.10 0.13 0.22
0.00 0.00 0.00 0.00 0.00 0.00 0.00 0.00 0.00 0.00 0.00 0.00 0.00 0.00 0.00 0.00 0.00 0.00 0.00 0.00 0.00 0.00 0.00 0.00 0.00 0.00 0.00 0.00 0.01 0.00 0.00 0.01 0.02 0.01 0.01 0.01 0.02 0.01 0.02 0.02 0.02 0.05 0.02 0.01 0.07 0.04 0.05 0.08 0.06 0.01 0.01 0.02 0.07 0.05 0.07 0.04 0.03 0.01 0.02 0.05 0.11 0.10 0.07 0.07 0.07 0.08 0.06 0.08 0.06 0.21 0.29 0.43 0.89 1.56 0.83 0.47 0.04 0.08 0.08 0.27 0.21 0.04 0.36 0.09 0.12 0.35 0.41 0.46 0.55 0.57 0.69 0.74 0.56 0.37 0.24 0.28 0.13
0.00 0.00 0.00 0.00 0.00 0.00 0.00 0.00 0.00 0.00 0.00 0.00 0.00 0.00 0.00 0.00 0.00 0.00 0.00 0.00 0.00 0.00 0.00 0.00 0.00 0.00 0.00 0.00 0.00 0.00 0.00 0.02 0.01 0.00 0.02 0.04 0.01 0.01 0.01 0.02 0.02 0.03 0.01 0.01 0.02 0.03 0.02 0.02 0.04 0.06 0.05 0.02 0.03 0.07 0.19 0.12 0.03 0.03 0.06 0.10 0.04 0.04 0.06 0.05 0.04 0.02 0.05 0.08 0.08 0.25 0.12 0.34 0.51 0.34 0.24 0.10 0.02 0.05 0.09 0.05 0.04 0.08 0.01 0.13 0.30 0.27 0.51 0.67 0.33 0.39 0.47 0.46 0.33 0.35 0.31 0.23 0.21
0.00 0.00 0.00 0.00 0.00 0.00 0.00 0.00 0.00 0.00 0.00 0.00 0.00 0.00 0.00 0.01 0.00 0.00 0.00 0.00 0.00 0.00 0.00 0.00 0.00 0.00 0.00 0.00 0.00 0.00 0.00 0.00 0.00 0.01 0.01 0.00 0.00 0.01 0.02 0.00 0.01 0.00 0.00 0.00 0.01 0.02 0.02 0.02 0.05 0.03 0.10 0.09 0.06 0.16 0.08 0.05 0.07 0.04 0.07 0.05 0.03 0.01 0.01 0.01 0.01 0.02 0.02 0.06 0.05 0.37 0.17 0.14 0.10 0.10 0.10 0.09 0.06 0.08 0.08 0.03 0.04 0.05 0.13 0.16 0.21 0.32 0.35 0.16 0.27 0.18 0.27 0.37 0.36 0.36 0.29 0.27 0.21
0.00 0.00 0.00 0.00 0.00 0.00 0.01 0.00 0.00 0.00 0.00 0.00 0.00 0.00 0.00 0.01 0.00 0.00 0.00 0.00 0.00 0.00 0.00 0.00 0.00 0.00 0.00 0.00 0.00 0.00 0.00 0.00 0.00 0.00 0.00 0.00 0.01 0.00 0.00 0.00 0.00 0.00 0.00 0.00 0.00 0.00 0.00 0.00 0.01 0.02 0.06 0.12 0.08 0.05 0.11 0.12 0.09 0.10 0.01 0.01 0.01 0.00 0.01 0.00 0.00 0.01 0.02 0.06 0.15 0.41 0.30 0.12 0.31 0.18 0.10 0.05 0.05 0.05 0.06 0.04 0.04 0.04 0.07 0.19 0.14 0.12 0.13 0.14 0.11 0.15 0.14 0.21 0.20 0.20 0.15 0.09 0.10
0.00 0.00 0.00 0.00 0.00 0.00 0.00 0.00 0.00 0.00 0.00 0.00 0.00 0.00 0.04 0.03 0.00 0.00 0.00 0.00 0.00 0.00 0.00 0.00 0.00 0.00 0.00 0.00 0.00 0.00 0.00 0.00 0.00 0.01 0.01 0.00 0.00 0.00 0.00 0.00 0.00 0.00 0.00 0.00 0.00 0.00 0.00 0.00 0.00 0.01 0.01 0.01 0.03 0.02 0.02 0.01 0.01 0.02 0.02 0.02 0.01 0.02 0.00 0.01 0.01 0.01 0.01 0.02 0.04 0.06 0.07 0.04 0.05 0.06 0.06 0.05 0.04 0.03 0.03 0.03 0.04 0.05 0.05 0.05 0.05 0.05 0.05 0.07 0.06 0.07 0.07 0.11 0.25 0.21 0.11 0.14 0.10
0.00 0.00 0.00 0.00 0.00 0.00 0.00 0.00 0.00 0.00 0.00 0.00 0.00 0.04 0.04 0.04 0.04 0.00 0.00 0.00 0.00 0.00 0.00 0.00 0.00 0.00 0.00 0.00 0.00 0.00 0.00 0.00 0.00 0.00 0.00 0.00 0.00 0.00 0.00 0.00 0.00 0.00 0.00 0.00 0.00 0.00 0.00 0.00 0.01 0.00 0.01 0.01 0.00 0.00 0.00 0.01 0.00 0.00 0.02 0.04 0.02 0.01 0.01 0.01 0.00 0.00 0.01 0.01 0.01 0.01 0.01 0.03 0.03 0.03 0.03 0.04 0.05 0.04 0.05 0.04 0.06 0.06 0.05 0.05 0.06 0.07 0.06 0.06 0.07 0.07 0.13 0.24 0.21 0.31 0.17 0.19 0.20
0.00 0.00 0.00 0.00 0.00 0.00 0.00 0.00 0.00 0.01 0.02 0.00 0.00 0.03 0.04 0.06 0.31 0.14 0.04 0.00 0.01 0.00 0.00 0.00 0.00 0.00 0.00 0.00 0.00 0.00 0.00 0.00 0.00 0.00 0.00 0.00 0.00 0.00 0.00 0.00 0.00 0.00 0.00 0.00 0.00 0.00 0.00 0.00 0.00 0.00 0.00 0.00 0.00 0.00 0.00 0.00 0.00 0.00 0.00 0.01 0.00 0.01 0.00 0.00 0.00 0.00 0.00 0.00 0.01 0.01 0.01 0.01 0.01 0.01 0.01 0.01 0.03 0.02 0.05 0.05 0.07 0.04 0.04 0.06 0.05 0.08 0.09 0.09 0.11 0.09 0.11 0.13 0.18 0.21 0.24 0.28 0.17
0.00 0.00 0.00 0.00 0.00 0.00 0.00 0.00 0.00 0.01 0.00 0.00 0.00 0.00 0.07 0.04 0.01 0.01 0.00 0.03 0.01 0.00 0.00 0.00 0.00 0.00 0.00 0.00 0.00 0.00 0.00 0.00 0.00 0.00 0.00 0.00 0.00 0.00 0.00 0.00 0.00 0.00 0.00 0.00 0.00 0.00 0.00 0.00 0.00 0.00 0.00 0.00 0.00 0.00 0.00 0.00 0.00 0.00 0.00 0.00 0.00 0.00 0.00 0.00 0.00 0.00 0.00 0.00 0.00 0.00 0.00 0.00 0.01 0.01 0.02 0.01 0.07 0.03 0.03 0.05 0.07 0.07 0.08 0.12 0.09 0.07 0.06 0.09 0.05 0.10 0.06 0.11 0.17 0.17 0.22 0.31 0.28
0.00 0.00 0.00 0.00 0.00 0.00 0.00 0.00 0.00 0.00 0.01 0.06 0.00 0.00 0.04 0.01 0.01 0.00 0.01 0.02 0.00 0.00 0.00 0.00 0.00 0.00 0.00 0.00 0.00 0.00 0.00 0.00 0.00 0.00 0.00 0.00 0.00 0.00 0.01 0.00 0.00 0.00 0.00 0.00 0.00 0.00 0.00 0.00 0.00 0.00 0.00 0.00 0.00 0.00 0.00 0.00 0.00 0.00 0.00 0.01 0.00 0.00 0.00 0.00 0.00 0.00 0.01 0.01 0.00 0.00 0.00 0.00 0.00 0.00 0.01 0.04 0.03 0.05 0.04 0.04 0.06 0.06 0.09 0.07 0.07 0.08 0.06 0.06 0.05 0.07 0.14 0.14 0.13 0.20 0.34 0.36 0.34
0.00 0.00 0.00 0.00 0.00 0.00 0.00 0.00 0.00 0.00 0.00 0.02 0.00 0.01 0.05 0.02 0.00 0.00 0.00 0.00 0.01 0.00 0.00 0.01 0.00 0.00 0.00 0.01 0.01 0.00 0.00 0.00 0.00 0.00 0.00 0.00 0.00 0.00 0.00 0.00 0.00 0.00 0.00 0.00 0.00 0.00 0.00 0.00 0.00 0.00 0.00 0.00 0.00 0.00 0.00 0.00 0.00 0.00 0.00 0.00 0.00 0.00 0.00 0.00 0.00 0.00 0.00 0.00 0.00 0.00 0.00 0.00 0.00 0.01 0.01 0.01 0.02 0.02 0.03 0.03 0.04 0.09 0.06 0.06 0.07 0.11 0.07 0.09 0.09 0.12 0.13 0.13 0.38 0.27 0.36 0.30 0.29
0.00 0.00 0.00 0.00 0.00 0.00 0.00 0.00 0.00 0.00 0.00 0.00 0.00 0.01 0.00 0.01 0.01 0.01 0.00 0.00 0.00 0.04 0.01 0.00 0.00 0.01 0.01 0.01 0.01 0.01 0.00 0.00 0.00 0.00 0.00 0.00 0.00 0.00 0.00 0.00 0.00 0.00 0.00 0.00 0.00 0.00 0.00 0.00 0.00 0.00 0.00 0.00 0.00 0.00 0.00 0.00 0.00 0.00 0.00 0.00 0.00 0.00 0.00 0.00 0.00 0.00 0.00 0.00 0.00 0.00 0.01 0.00 0.00 0.01 0.00 0.00 0.01 0.01 0.01 0.01 0.01 0.03 0.04 0.09 0.10 0.09 0.08 0.08 0.05 0.07 0.11 0.42 0.21 0.16 0.18 0.24 0.21
0.00 0.00 0.00 0.00 0.00 0.00 0.00 0.00 0.00 0.00 0.00 0.00 0.00 0.01 0.00 0.02 0.00 0.00 0.00 0.00 0.00 0.00 0.00 0.00 0.00 0.00 0.00 0.01 0.02 0.00 0.00 0.01 0.00 0.00 0.00 0.00 0.00 0.00 0.00 0.00 0.00 0.00 0.00 0.00 0.00 0.00 0.00 0.00 0.00 0.00 0.00 0.00 0.00 0.00 0.00 0.00 0.00 0.00 0.00 0.00 0.00 0.00 0.00 0.00 0.00 0.00 0.00 0.00 0.00 0.00 0.00 0.01 0.00 0.00 0.00 0.00 0.00 0.00 0.01 0.01 0.02 0.02 0.02 0.03 0.02 0.04 0.06 0.06 0.16 0.13 0.14 0.22 0.10 0.13 0.14 0.56 0.56
0.00 0.00 0.00 0.00 0.00 0.00 0.00 0.00 0.00 0.00 0.00 0.01 0.00 0.00 0.00 0.01 0.00 0.00 0.00 0.00 0.00 0.00 0.00 0.00 0.00 0.00 0.00 0.01 0.00 0.02 0.00 0.01 0.00 0.00 0.00 0.00 0.00 0.00 0.00 0.00 0.00 0.00 0.00 0.00 0.00 0.00 0.00 0.00 0.00 0.00 0.00 0.00 0.00 0.00 0.00 0.00 0.00 0.00 0.00 0.00 0.00 0.00 0.00 0.00 0.00 0.00 0.00 0.00 0.00 0.00 0.00 0.00 0.00 0.00 0.00 0.00 0.00 0.00 0.01 0.00 0.01 0.01 0.01 0.01 0.01 0.02 0.03 0.05 0.06 0.10 0.09 0.06 0.09 0.15 0.17 0.15 0.13
0.00 0.00 0.00 0.00 0.00 0.00 0.00 0.00 0.00 0.00 0.00 0.00 0.00 0.00 0.00 0.00 0.01 0.00 0.00 0.00 0.00 0.00 0.00 0.00 0.00 0.00 0.00 0.00 0.00 0.00 0.00 0.00 0.01 0.01 0.00 0.00 0.00 0.01 0.00 0.00 0.00 0.00 0.00 0.00 0.00 0.00 0.00 0.00 0.00 0.00 0.00 0.00 0.00 0.00 0.00 0.00 0.00 0.00 0.00 0.00 0.00 0.00 0.00 0.00 0.00 0.00 0.00 0.00 0.00 0.00 0.00 0.00 0.00 0.00 0.00 0.00 0.00 0.00 0.01 0.00 0.00 0.01 0.01 0.01 0.01 0.01 0.02 0.02 0.03 0.03 0.04 0.04 0.05 0.15 0.13 0.25 0.19
0.00 0.00 0.00 0.00 0.00 0.00 0.00 0.00 0.00 0.00 0.00 0.00 0.00 0.00 0.00 0.00 0.00 0.00 0.00 0.00 0.00 0.00 0.00 0.00 0.00 0.00 0.02 0.00 0.00 0.00 0.00 0.00 0.01 0.00 0.00 0.00 0.00 0.02 0.00 0.00 0.00 0.00 0.00 0.00 0.00 0.00 0.00 0.00 0.00 0.00 0.00 0.00 0.00 0.00 0.00 0.00 0.00 0.00 0.00 0.00 0.00 0.00 0.00 0.00 0.00 0.00 0.00 0.00 0.00 0.00 0.01 0.01 0.00 0.01 0.00 0.00 0.00 0.00 0.00 0.00 0.00 0.01 0.01 0.01 0.01 0.02 0.01 0.02 0.02 0.02 0.11 0.02 0.04 0.08 0.12 0.13 0.11
0.00 0.00 0.00 0.00 0.00 0.00 0.00 0.00 0.00 0.00 0.00 0.00 0.00 0.00 0.00 0.00 0.00 0.00 0.00 0.00 0.00 0.00 0.00 0.00 0.00 0.00 0.00 0.02 0.00 0.00 0.00 0.00 0.00 0.00 0.00 0.00 0.00 0.02 0.00 0.00 0.00 0.00 0.00 0.00 0.00 0.00 0.00 0.00 0.00 0.00 0.00 0.00 0.00 0.00 0.00 0.00 0.00 0.00 0.00 0.00 0.00 0.00 0.00 0.00 0.00 0.00 0.00 0.00 0.00 0.00 0.00 0.01 0.01 0.01 0.01 0.00 0.00 0.00 0.00 0.00 0.00 0.00 0.01 0.02 0.01 0.01 0.02 0.02 0.02 0.07 0.19 0.18 0.16 0.14 0.22 0.19 0.21
0.00 0.00 0.00 0.00 0.00 0.00 0.00 0.00 0.00 0.00 0.00 0.00 0.00 0.00 0.00 0.00 0.00 0.00 0.00 0.00 0.00 0.00 0.00 0.00 0.00 0.00 0.00 0.00 0.00 0.00 0.00 0.00 0.00 0.00 0.00 0.00 0.01 0.00 0.00 0.03 0.00 0.00 0.00 0.00 0.00 0.00 0.00 0.00 0.00 0.00 0.00 0.00 0.00 0.00 0.00 0.00 0.00 0.00 0.00 0.00 0.00 0.00 0.00 0.00 0.00 0.00 0.00 0.00 0.00 0.00 0.01 0.01 0.00 0.01 0.01 0.01 0.01 0.01 0.01 0.01 0.01 0.02 0.00 0.01 0.01 0.01 0.02 0.02 0.02 0.02 0.13 0.17 0.23 0.25 0.18 0.12 0.12
0.00 0.00 0.00 0.00 0.00 0.00 0.00 0.00 0.00 0.00 0.00 0.00 0.00 0.00 0.01 0.00 0.00 0.00 0.00 0.00 0.00 0.00 0.00 0.00 0.00 0.00 0.00 0.00 0.00 0.01 0.00 0.00 0.00 0.00 0.00 0.00 0.01 0.00 0.01 0.03 0.00 0.00 0.00 0.00 0.00 0.00 0.00 0.00 0.00 0.00 0.00 0.00 0.00 0.00 0.00 0.00 0.00 0.00 0.00 0.00 0.00 0.00 0.00 0.00 0.00 0.00 0.00 0.00 0.00 0.00 0.00 0.01 0.01 0.00 0.00 0.01 0.00 0.01 0.01 0.01 0.01 0.02 0.03 0.01 0.01 0.01 0.01 0.02 0.03 0.03 0.02 0.07 0.11 0.20 0.17 0.18 0.23
0.00 0.00 0.00 0.00 0.00 0.00 0.00 0.00 0.00 0.00 0.00 0.00 0.00 0.00 0.00 0.00 0.00 0.00 0.00 0.00 0.00 0.00 0.00 0.00 0.00 0.00 0.00 0.00 0.00 0.00 0.00 0.00 0.00 0.00 0.00 0.00 0.00 0.00 0.00 0.03 0.01 0.00 0.00 0.00 0.00 0.00 0.00 0.00 0.00 0.00 0.00 0.00 0.00 0.00 0.00 0.00 0.00 0.00 0.00 0.00 0.00 0.00 0.00 0.00 0.00 0.00 0.00 0.00 0.00 0.00 0.00 0.00 0.00 0.01 0.00 0.01 0.01 0.01 0.00 0.00 0.01 0.03 0.02 0.01 0.01 0.02 0.01 0.02 0.02 0.04 0.02 0.02 0.01 0.03 0.07 0.09 0.22
0.00 0.00 0.00 0.00 0.00 0.00 0.00 0.00 0.00 0.00 0.00 0.00 0.00 0.00 0.00 0.00 0.00 0.00 0.00 0.00 0.00 0.00 0.00 0.00 0.00 0.00 0.00 0.00 0.00 0.00 0.00 0.00 0.01 0.00 0.00 0.01 0.01 0.04 0.07 0.04 0.02 0.00 0.00 0.00 0.00 0.00 0.00 0.00 0.00 0.00 0.00 0.00 0.00 0.00 0.00 0.00 0.00 0.00 0.00 0.00 0.00 0.00 0.00 0.00 0.00 0.00 0.00 0.00 0.00 0.00 0.00 0.00 0.01 0.00 0.00 0.00 0.01 0.00 0.01 0.01 0.01 0.00 0.03 0.02 0.02 0.02 0.02 0.02 0.03 0.06 0.05 0.03 0.03 0.04 0.05 0.06 0.11
0.00 0.00 0.00 0.00 0.00 0.00 0.00 0.00 0.00 0.00 0.00 0.00 0.00 0.00 0.00 0.00 0.00 0.00 0.00 0.00 0.00 0.00 0.00 0.00 0.00 0.00 0.00 0.00 0.00 0.00 0.00 0.00 0.00 0.00 0.00 0.00 0.01 0.04 0.02 0.03 0.02 0.02 0.00 0.00 0.00 0.00 0.00 0.00 0.00 0.00 0.00 0.00 0.00 0.00 0.00 0.00 0.00 0.00 0.00 0.00 0.00 0.00 0.00 0.00 0.00 0.00 0.00 0.00 0.00 0.00 0.00 0.00 0.00 0.03 0.01 0.02 0.01 0.01 0.01 0.01 0.02 0.02 0.03 0.03 0.03 0.02 0.02 0.03 0.03 0.04 0.02 0.02 0.03 0.05 0.02 0.04 0.05
0.00 0.00 0.00 0.00 0.00 0.00 0.00 0.00 0.00 0.00 0.00 0.00 0.00 0.00 0.00 0.00 0.00 0.00 0.00 0.00 0.00 0.00 0.00 0.00 0.00 0.00 0.00 0.00 0.00 0.00 0.00 0.00 0.00 0.01 0.03 0.01 0.03 0.00 0.00 0.00 0.00 0.00 0.00 0.00 0.00 0.00 0.00 0.00 0.00 0.00 0.00 0.00 0.00 0.00 0.00 0.00 0.00 0.00 0.00 0.00 0.00 0.00 0.00 0.00 0.00 0.00 0.00 0.00 0.00 0.00 0.00 0.00 0.00 0.00 0.01 0.01 0.00 0.01 0.01 0.01 0.02 0.02 0.06 0.02 0.07 0.03 0.05 0.05 0.03 0.03 0.02 0.02 0.02 0.04 0.03 0.04 0.05